Volver al catálogo

KUIPER-00543

ActivoComunicacionesVLEO
NORAD 69612·PAYLOAD·🇺🇸 United States

Lanzado Jun 17, 2026 desde Guiana Space Centre

Loading…

Próximos Pases (próximas 24 horas)

TLE

ActualizadoSource: CelesTrak SupGP

Época: Sep 14, 2026, 16:38 UTC

1 69612C 26140W   26257.69348380 -.00785990  00000+0 -60382-1 0  2576
2 69612  51.8956 328.3974 0004070 247.4819 265.5018 15.02019715    11

Sigue KUIPER-00543 en tiempo real con AllMySat

Download on the App Store